Breckenridge, USA 16 day weather forecast

Slopes altitude range 2925 m - 3915m

Number of lifts: 23 Pistes: 155km

In some cases the lift and piste totals shown are for the ski domain (e.g. Three Valleys) rather than individual resort (e.g. Courchevel)

Overview

The 16 day weather forecast is fully updated 4 times every day.

    • Sat 20 APR 2019
    • Sat 20
    • -1C -1C
    • Sun 21 APR 2019
    • Sun 21
    • -4C -3C
    • Mon 22 APR 2019
    • Mon 22
    • -5C -2C
    • Tue 23 APR 2019
    • Tue 23
    • -5C -3C
    • Wed 24 APR 2019
    • Wed 24
    • -6C -5C
    • Thu 25 APR 2019
    • Thu 25
    • -2C -1C
    • Fri 26 APR 2019
    • Fri 26
    • -1C 0C
    • Sat 27 APR 2019
    • Sat 27
    • 0C 1C
    • Sun 28 APR 2019
    • Sun 28
    • 3C 5C
    • Mon 29 APR 2019
    • Mon 29
    • 4C 6C
    • Tue 30 APR 2019
    • Tue 30
    • 3C 14C
    • Wed 01 MAY 2019
    • Wed 01
    • 6C 14C
    • Thu 02 MAY 2019
    • Thu 02
    • 4C 10C
    • Fri 03 MAY 2019
    • Fri 03
    • 3C 6C
    • Sat 04 MAY 2019
    • Sat 04
    • 2C 4C
    • Sun 05 MAY 2019
    • Sun 05
    • 1C 6C

Date:

Time Type 0°C level Temp Chill Snow Cloud Speed Gust Dir Press
3:00 3303m -1°C -1_1 0cm 0% 1mph 2mph 1017mB
6:00 3188m -1°C -1_2 0cm 0% 2mph 3mph 1018mB
9:00 3141m -1°C -1_3 0cm 15% 3mph 4mph 1017mB
12:00 3073m -1°C -1_3 0cm 33% 3mph 4mph 1016mB
15:00 3970m 6°C 6_3 0cm 80% 3mph 9mph 1013mB
18:00 4111m 10°C 10_7 0cm 86% 7mph 12mph 1008mB
21:00 4145m 9°C 9_7 0cm 99% 7mph 11mph 1005mB
0:00 3639m 3°C 3_2 2cm 99% 2mph 3mph 1006mB
3:00 3324m 0°C 0_7 2cm 100% 7mph 12mph 1009mB
6:00 2811m -3°C -3_2 2cm 95% 2mph 3mph 1010mB
9:00 2852m -3°C -3_3 0cm 92% 3mph 4mph 1009mB
12:00 2736m -3°C -3_3 0cm 55% 3mph 4mph 1010mB
15:00 3514m 3°C 3_3 0cm 91% 3mph 5mph 1009mB
18:00 3504m 5°C 5_1 2cm 96% 1mph 1mph 1008mB
21:00 3399m 2°C 2_3 6cm 100% 3mph 4mph 1008mB
0:00 3425m 1°C 1_4 9cm 100% 4mph 6mph 1009mB
3:00 3113m -1°C -1_3 1cm 99% 3mph 4mph 1013mB
6:00 3029m -2°C -2_2 1cm 99% 2mph 3mph 1015mB
9:00 2868m -3°C -3_3 3cm 96% 3mph 4mph 1015mB
12:00 2557m -2°C -2_4 4cm 64% 4mph 5mph 1016mB
15:00 3303m 1°C 1_5 0cm 15% 5mph 7mph 1017mB
18:00 3436m 3°C 3_5 4cm 28% 5mph 6mph 1017mB
21:00 3399m 2°C 2_6 7cm 99% 6mph 9mph 1015mB
0:00 3249m 0°C 0_4 11cm 100% 4mph 7mph 1017mB
3:00 3011m -2°C -2_3 9cm 100% 3mph 4mph 1019mB
6:00 2816m -3°C -3_3 13cm 100% 3mph 4mph 1020mB
9:00 2516m -5°C -5_3 0cm 98% 3mph 3mph 1020mB
12:00 2612m -3°C -3_2 0cm 95% 2mph 2mph 1021mB
15:00 3211m -1°C -1_2 0cm 91% 2mph 4mph 1021mB
18:00 3347m 1°C 1_3 1cm 93% 3mph 5mph 1019mB
21:00 3476m 1°C 1_4 2cm 82% 4mph 7mph 1016mB
0:00 3535m 1°C 1_4 3cm 52% 4mph 9mph 1016mB
3:00 2827m -3°C -3_2 1cm 34% 2mph 3mph 1020mB
6:00 2584m -5°C -5_2 1cm 30% 2mph 3mph 1021mB
9:00 2391m -6°C -6_4 0cm 2% 4mph 5mph 1021mB
12:00 2326m -5°C -5_4 0cm 1% 4mph 5mph 1022mB
15:00 3334m 1°C 1_5 0cm 0% 5mph 8mph 1020mB
18:00 3574m 4°C 4_5 0cm 1% 5mph 7mph 1018mB
21:00 3788m 4°C 4_6 0cm 24% 6mph 10mph 1015mB
0:00 3824m 4°C 4_6 1cm 33% 6mph 13mph 1015mB
3:00 3524m 0°C 0_5 1cm 45% 5mph 6mph 1019mB
6:00 2986m -2°C -2_4 1cm 25% 4mph 5mph 1020mB
9:00 3007m -2°C -2_4 0cm 3% 4mph 5mph 1019mB
12:00 3005m -1°C -1_5 0cm 9% 5mph 6mph 1021mB
15:00 3636m 4°C 4_4 0cm 1% 4mph 6mph 1021mB
18:00 3853m 7°C 7_5 0cm 1% 5mph 8mph 1020mB
21:00 4014m 7°C 7_6 0cm 20% 6mph 9mph 1017mB
0:00 4072m 7°C 7_4 0cm 13% 4mph 9mph 1017mB
3:00 3681m 0°C 0_1 0cm 3% 1mph 2mph 1020mB
6:00 3487m -1°C -1_2 0cm 12% 2mph 3mph 1021mB
9:00 3205m -1°C -1_3 0cm 0% 3mph 4mph 1021mB
12:00 3152m 0°C 0_2 0cm 19% 2mph 3mph 1021mB
15:00 3944m 6°C 6_3 0cm 77% 3mph 6mph 1019mB
18:00 4128m 10°C 10_8 0cm 67% 8mph 14mph 1016mB
21:00 4286m 10°C 10_11 0cm 63% 11mph 16mph 1013mB
0:00 4280m 9°C 9_9 0cm 76% 9mph 16mph 1013mB
3:00 4142m 3°C 3_3 0cm 99% 3mph 4mph 1016mB
6:00 4093m 1°C 1_4 4cm 97% 4mph 6mph 1016mB
9:00 3968m 1°C 1_5 0cm 100% 5mph 6mph 1016mB
12:00 3671m 1°C 1_5 0cm 99% 5mph 6mph 1017mB
15:00 3786m 11°C 11_12 0cm 58% 12mph 25mph 1014mB
18:00 3967m 15°C 15_19 0cm 32% 19mph 33mph 1012mB
21:00 4055m 15°C 15_20 0cm 52% 20mph 32mph 1011mB
0:00 4028m 14°C 14_17 0cm 42% 17mph 28mph 1011mB
3:00 3950m 7°C 7_3 0cm 55% 3mph 4mph 1016mB
6:00 3860m 5°C 5_4 0cm 33% 4mph 5mph 1018mB
9:00 3825m 4°C 4_4 0cm 42% 4mph 6mph 1019mB
12:00 3839m 5°C 5_3 0cm 22% 3mph 4mph 1020mB
15:00 3889m 12°C 12_4 0cm 0% 4mph 9mph 1017mB
18:00 4040m 16°C 16_10 0cm 0% 10mph 16mph 1014mB
21:00 4249m 16°C 16_13 0cm 1% 13mph 20mph 1011mB
0:00 4262m 16°C 16_13 0cm 11% 13mph 20mph 1010mB
3:00 4127m 9°C 9_4 0cm 7% 4mph 6mph 1014mB
6:00 4144m 6°C 6_4 0cm 13% 4mph 5mph 1015mB
9:00 4044m 5°C 5_4 0cm 89% 4mph 6mph 1015mB
12:00 3977m 6°C 6_3 0cm 89% 3mph 4mph 1017mB
15:00 3925m 12°C 12_3 0cm 99% 3mph 7mph 1017mB
18:00 4075m 17°C 17_5 0cm 99% 5mph 9mph 1015mB
21:00 4296m 17°C 17_10 0cm 86% 10mph 14mph 1013mB
0:00 4331m 17°C 17_4 0cm 92% 4mph 10mph 1013mB
Afternoon 0.0208333mm 0.25 4131m 14°C 14_7 0cm 61% 7mph 12mph 1022mB
Morning 0.046875mm 0.375 4384m 3°C 3_2 0cm 90% 2mph 6mph 1016mB
Afternoon 0.442708mm 1.375 4077m 14°C 14_3 0cm 98% 3mph 4mph 1017mB
Morning 0.635417mm 4 4047m 6°C 6_4 0cm 99% 4mph 6mph 1011mB
Afternoon 0.234375mm 0.25 3960m 10°C 10_3 0cm 96% 3mph 4mph 1012mB
Morning 0.828125mm 0.9375 3785m 4°C 4_6 0cm 98% 6mph 10mph 1009mB
Afternoon 3.35417mm 0.8125 3636m 6°C 6_5 0cm 100% 5mph 12mph 1011mB
Morning 2.32812mm 0.3125 3493m 3°C 3_5 0cm 100% 5mph 8mph 1012mB
Afternoon 0.21875mm 0 3326m 4°C 4_4 0cm 91% 4mph 6mph 1012mB
Morning 0.364583mm 0.25 3627m 2°C 2_5 0cm 93% 5mph 8mph 1009mB
Afternoon 1.26042mm 0 3424m 6°C 6_4 0cm 99% 4mph 4mph 1011mB
Morning 0.65625mm 3.5625 3652m 1°C 1_5 0cm 94% 5mph 9mph 1008mB

16 day outlook at a glance

Forecast issued: 20/04/2019 06:25:24

Chat

Your comments and questions. In a resort? Let us know what it's like!


Characters left 250

For terms and conditions see Readers Comments on the Cookie and privacy policy page.